This is the latest recevied weather packets stored in our database for station/object KM4KMS. If no packets are shown the sender has not sent any weather packets the latest 10 day(s).
| Time | Temp. | Humidity | Pressure | Rain* | Wind** | Luminosity | Snow |
|---|---|---|---|---|---|---|---|
| 1778091511 | 16.11° C | 64% | 1011.9 hPa | 0 mm | - | 653 W/m² | - |
| 1778091209 | 16.67° C | 62% | 1012 hPa | 0 mm | - | 711 W/m² | - |
| 1778090906 | 16.67° C | 62% | 1012.2 hPa | 0 mm | - | 699 W/m² | - |
| 1778090602 | 16.67° C | 60% | 1011.9 hPa | 0 mm | - | 691 W/m² | - |
| 1778090298 | 16.11° C | 63% | 1012 hPa | 0 mm | - | 673 W/m² | - |
| 1778089995 | 16.11° C | 67% | 1011.8 hPa | 0 mm | - | 671 W/m² | - |
| 1778089693 | 15.56° C | 69% | 1011.8 hPa | 0 mm | - | 663 W/m² | - |
| 1778089390 | 15.56° C | 64% | 1011.8 hPa | 0 mm | - | 645 W/m² | - |
| 1778089087 | 15.56° C | 68% | 1012.2 hPa | 0 mm | - | 658 W/m² | - |
| 1778088784 | 15.56° C | 67% | 1012.2 hPa | 0 mm | - | 646 W/m² | - |
| 1778088481 | 15.56° C | 70% | 1012.2 hPa | 0 mm | - | 686 W/m² | - |
| 1778088177 | 15° C | 71% | 1012.1 hPa | 0 mm | - | 732 W/m² | - |
| 1778087875 | 15.56° C | 70% | 1012.2 hPa | 0 mm | - | 711 W/m² | - |
| 1778087572 | 16.11° C | 71% | 1012.2 hPa | 0 mm | - | 662 W/m² | - |
| 1778087270 | 15° C | 74% | 1012.4 hPa | 0 mm | - | 715 W/m² | - |
| 1778086966 | 15° C | 70% | 1012.4 hPa | 0 mm | - | 692 W/m² | - |
| 1778086664 | 15° C | 70% | 1012.6 hPa | 0 mm | - | 661 W/m² | - |
| 1778086361 | 15.56° C | 68% | 1012.5 hPa | 0 mm | - | 702 W/m² | - |
| 1778086058 | 15.56° C | 70% | 1012.4 hPa | 0 mm | - | 725 W/m² | - |
| 1778085755 | 15.56° C | 74% | 1012.5 hPa | 0 mm | - | 642 W/m² | - |
| 1778085452 | 15.56° C | 70% | 1012.6 hPa | 0 mm | - | 687 W/m² | - |
| 1778085146 | 14.44° C | 70% | 1012.8 hPa | 0 mm | - | 675 W/m² | - |
| 1778084843 | 14.44° C | 71% | 1012.7 hPa | 0 mm | - | 714 W/m² | - |
| 1778084541 | 15° C | 70% | 1012.5 hPa | 0 mm | - | 773 W/m² | - |
| 1778084237 | 13.89° C | 74% | 1012.9 hPa | 0 mm | - | 788 W/m² | - |
* Rain latest hour (hover to see other rain measurements)
** Current wind speed in m/s (hover to see current wind gust speed)